Location: Unspecified
(50.7693°N, 0.0000°E)
Time: 17:48:02
(UTC+00:00)

Transit 4A - Pass Details

Date: 27 June 2019
Orbit: 863 x 981 km, 66.8° (Epoch: 22 August)

Event Time Altitude Azimuth Distance (km) Brightness Sun altitude
Rises 09:48:56 0° 269° (W) 3,662 10.7 52.3°
Reaches altitude 10° 09:52:00 10° 282° (WNW) 2,728 10.1 52.7°
Maximum altitude 09:57:12 25° 336° (NNW) 1,859 9.5 53.3°
Drops below altitude 10° 10:02:26 10° 31° (NNE) 2,743 10.4 54.0°
Sets 10:05:31 0° 44° (NE) 3,687 11.1 54.4°
